timestamp,surface_pressure_avg,surface_temp_avg,battery_voltage,lat,long
2021-05-11 00:09:01+00:00,363.4363,5.18,13.21,47.84626,-54.09684
2021-05-11 00:19:01+00:00,355.7796,5.15,12.89,47.84626,-54.09684
2021-05-11 00:29:01+00:00,351.6096,5.1,12.89,47.84626,-54.09684
2021-05-11 00:39:01+00:00,346.7679,5.1,12.89,47.84626,-54.09684
2021-05-11 00:49:01+00:00,341.6913,5.1,12.89,47.84626,-54.09684
2021-05-11 00:59:01+00:00,338.9847,5.1,12.89,47.84626,-54.09684
2021-05-11 01:09:01+00:00,339.4696,5.11,12.89,47.84626,-54.09684
2021-05-11 01:19:01+00:00,338.7097,5.13,12.65,47.84626,-54.09684
2021-05-11 01:29:01+00:00,330.5863,5.17,12.65,47.84626,-54.09684
2021-05-11 01:39:01+00:00,322.7595,5.2,12.65,47.84626,-54.09684
2021-05-11 01:49:01+00:00,318.4997,5.2,12.65,47.84626,-54.09684
2021-05-11 01:59:01+00:00,311.5547,5.27,12.65,47.84626,-54.09684
2021-05-11 02:09:01+00:00,304.8813,5.37,12.65,47.84626,-54.09684
2021-05-11 02:19:01+00:00,296.308,5.4,12.65,47.84626,-54.09684
2021-05-11 02:29:01+00:00,290.5147,5.47,12.65,47.84626,-54.09684
2021-05-11 02:39:01+00:00,282.4964,5.5,12.65,47.84626,-54.09684
2021-05-11 02:49:01+00:00,276.248,5.54,12.65,47.84626,-54.09684
2021-05-11 02:59:01+00:00,266.8047,5.6,12.65,47.84626,-54.09684
2021-05-11 03:09:01+00:00,257.8147,5.67,12.65,47.84626,-54.09684
2021-05-11 03:19:00+00:00,250.8331,5.7,12.65,47.84626,-54.09684
2021-05-11 03:29:00+00:00,243.6297,5.7,12.65,47.84626,-54.09684
2021-05-11 03:39:00+00:00,235.2964,5.7,12.65,47.84626,-54.09684
2021-05-11 03:49:00+00:00,229.4832,5.7,12.65,47.84626,-54.09684
2021-05-11 03:59:00+00:00,222.3064,5.69,12.65,47.84626,-54.09684
2021-05-11 04:09:00+00:00,213.6514,5.7,12.65,47.84626,-54.09684
2021-05-11 04:19:01+00:00,208.4565,5.7,12.65,47.84626,-54.09684
2021-05-11 04:29:01+00:00,205.2548,5.7,12.65,47.84626,-54.09684
2021-05-11 04:39:01+00:00,198.7231,5.7,12.65,47.84626,-54.09684
2021-05-11 04:49:01+00:00,193.9881,5.69,12.65,47.84626,-54.09684
2021-05-11 04:59:01+00:00,192.6564,5.61,12.65,47.84626,-54.09684
2021-05-11 05:09:01+00:00,192.6231,5.6,12.65,47.84626,-54.09684
2021-05-11 05:19:01+00:00,191.5531,5.59,12.65,47.84626,-54.09684
2021-05-11 05:29:01+00:00,189.8098,5.59,12.65,47.84626,-54.09684
2021-05-11 05:39:01+00:00,193.0981,5.6,12.65,47.84626,-54.09684
2021-05-11 05:49:01+00:00,195.7681,5.58,12.65,47.84626,-54.09684
2021-05-11 05:59:01+00:00,192.3614,5.53,12.65,47.84626,-54.09684
2021-05-11 06:09:01+00:00,195.3548,5.56,12.65,47.84626,-54.09684
2021-05-11 06:19:00+00:00,203.3548,5.5,12.65,47.84626,-54.09684
2021-05-11 06:29:00+00:00,204.6398,5.5,12.65,47.84626,-54.09684
2021-05-11 06:39:00+00:00,205.3347,5.5,12.65,47.84626,-54.09684
2021-05-11 06:49:00+00:00,213.0881,5.43,12.65,47.84626,-54.09684
2021-05-11 06:59:00+00:00,219.5648,5.4,12.65,47.84626,-54.09684
2021-05-11 07:09:00+00:00,221.6714,5.36,12.65,47.84626,-54.09684
2021-05-11 07:19:00+00:00,225.5681,5.33,12.57,47.84626,-54.09684
2021-05-11 07:29:00+00:00,231.41299999999998,5.3,12.57,47.84626,-54.09684
2021-05-11 07:39:00+00:00,239.9914,5.3,12.57,47.84626,-54.09684
2021-05-11 07:49:00+00:00,247.0098,5.3,12.57,47.84626,-54.09684
2021-05-11 07:59:00+00:00,250.0998,5.3,12.57,47.84626,-54.09684
2021-05-11 08:09:00+00:00,249.7181,5.3,12.57,47.84626,-54.09684
2021-05-11 08:19:01+00:00,252.7031,5.27,12.57,47.84626,-54.09684
2021-05-11 08:29:01+00:00,258.2114,5.2,12.57,47.84626,-54.09684
2021-05-11 08:39:01+00:00,262.6814,5.1,12.57,47.84626,-54.09684
2021-05-11 08:49:01+00:00,265.4364,4.99,12.57,47.84626,-54.09684
2021-05-11 08:59:01+00:00,271.3464,4.9,12.57,47.84626,-54.09684
2021-05-11 09:09:01+00:00,280.498,5.05,12.57,47.84626,-54.09684
2021-05-11 09:19:01+00:00,287.6714,5.15,12.65,47.84626,-54.09684
2021-05-11 09:29:01+00:00,293.7546,5.2,12.65,47.84626,-54.09684
2021-05-11 09:39:01+00:00,300.728,5.24,12.65,47.84626,-54.09684
2021-05-11 09:49:01+00:00,309.2897,5.25,12.65,47.84626,-54.09684
2021-05-11 09:59:01+00:00,313.7013,5.2,12.65,47.84626,-54.09684
2021-05-11 10:09:01+00:00,320.6829,5.2,12.65,47.84626,-54.09684
2021-05-11 10:19:01+00:00,330.0897,5.23,12.89,47.84626,-54.09684
2021-05-11 10:29:01+00:00,333.548,5.3,12.89,47.84626,-54.09684
2021-05-11 10:39:01+00:00,333.4563,5.3,12.89,47.84626,-54.09684
2021-05-11 10:49:01+00:00,336.3379,5.3,12.89,47.84626,-54.09684
2021-05-11 10:59:01+00:00,339.0113,5.2,12.89,47.84626,-54.09684
2021-05-11 11:09:01+00:00,330.3614,5.29,12.89,47.84626,-54.09684
2021-05-11 11:19:01+00:00,330.3729,5.29,13.13,47.84626,-54.09684
2021-05-11 11:29:01+00:00,339.1230000000001,5.0,13.13,47.84626,-54.09684
2021-05-11 11:39:01+00:00,339.658,4.99,13.13,47.84626,-54.09684
2021-05-11 11:49:01+00:00,333.5814,5.1,13.13,47.84626,-54.09684
2021-05-11 11:59:01+00:00,336.1597,5.0,13.13,47.84626,-54.09684
2021-05-11 12:09:01+00:00,340.4297,4.8,13.13,47.84626,-54.09684
2021-05-11 12:19:01+00:00,337.2746,4.8,13.53,47.84626,-54.09684
2021-05-11 12:29:01+00:00,334.0013,4.8,13.53,47.84626,-54.09684
2021-05-11 12:39:01+00:00,336.6163,4.7,13.53,47.84626,-54.09684
2021-05-11 12:49:01+00:00,332.463,4.5,13.53,47.84626,-54.09684
2021-05-11 12:59:01+00:00,321.2097,4.6,13.53,47.84626,-54.09684
2021-05-11 13:09:01+00:00,321.1431,4.6,13.53,47.84626,-54.09684
2021-05-11 13:19:01+00:00,319.683,4.6,14.32,47.84626,-54.09684
2021-05-11 13:29:01+00:00,310.8013,4.7,14.32,47.84626,-54.09684
2021-05-11 13:39:01+00:00,306.5197,4.7,14.32,47.84626,-54.09684
2021-05-11 13:49:01+00:00,311.9797,4.6,14.32,47.84626,-54.09684
2021-05-11 13:59:01+00:00,310.9714,4.59,14.32,47.84626,-54.09684
2021-05-11 14:09:01+00:00,298.488,4.62,14.32,47.84626,-54.09684
2021-05-11 14:19:01+00:00,294.3713,4.6,14.32,47.84626,-54.09684
2021-05-11 14:29:01+00:00,290.3814,4.5,14.32,47.84626,-54.09684
2021-05-11 14:39:01+00:00,282.4097,4.6,14.32,47.84626,-54.09684
2021-05-11 14:49:01+00:00,274.5031,4.74,14.32,47.84626,-54.09684
2021-05-11 14:59:01+00:00,274.6847,5.27,14.32,47.84626,-54.09684
2021-05-11 15:09:01+00:00,265.5098,5.28,14.32,47.84626,-54.09684
2021-05-11 15:19:01+00:00,245.8214,5.1,14.32,47.84626,-54.09684
2021-05-11 15:29:01+00:00,236.3081,5.0,14.32,47.84626,-54.09684
2021-05-11 15:39:01+00:00,236.6315,5.0,14.32,47.84626,-54.09684
2021-05-11 15:49:01+00:00,225.5247,4.9,14.32,47.84626,-54.09684
2021-05-11 15:59:01+00:00,214.3898,4.9,14.32,47.84626,-54.09684
2021-05-11 16:09:01+00:00,220.0614,4.8,14.32,47.84626,-54.09684
2021-05-11 16:19:01+00:00,217.8214,4.8,14.24,47.84626,-54.09684
2021-05-11 16:29:01+00:00,204.3731,4.9,14.24,47.84626,-54.09684
2021-05-11 16:39:01+00:00,200.4447,5.1,14.24,47.84626,-54.09684
2021-05-11 16:49:01+00:00,199.6981,5.14,14.24,47.84626,-54.09684
2021-05-11 16:59:01+00:00,192.1481,5.22,14.24,47.84626,-54.09684
2021-05-11 17:09:01+00:00,193.2064,5.3,14.24,47.84626,-54.09684
2021-05-11 17:19:01+00:00,199.6515,5.3,14.32,47.84626,-54.09684
2021-05-11 17:29:01+00:00,192.5765,5.34,14.32,47.84626,-54.09684
2021-05-11 17:39:01+00:00,185.5448,5.5,14.32,47.84626,-54.09684
2021-05-11 17:49:01+00:00,194.3198,5.5,14.32,47.84626,-54.09684
2021-05-11 17:59:01+00:00,198.8748,5.5,14.32,47.84626,-54.09684
2021-05-11 18:09:01+00:00,195.4748,5.5,14.32,47.84626,-54.09684
2021-05-11 18:19:01+00:00,203.1265,5.5,14.16,47.84626,-54.09684
2021-05-11 18:29:01+00:00,212.0298,5.46,14.16,47.84626,-54.09684
2021-05-11 18:39:01+00:00,215.9814,5.4,14.16,47.84626,-54.09684
2021-05-11 18:49:01+00:00,219.5848,5.3,14.16,47.84626,-54.09684
2021-05-11 18:59:01+00:00,225.8647,5.2,14.16,47.84626,-54.09684
2021-05-11 19:09:01+00:00,230.7948,5.0,14.16,47.84626,-54.09684
2021-05-11 19:19:01+00:00,231.2115,4.93,14.08,47.84626,-54.09684
2021-05-11 19:29:01+00:00,235.5031,4.9,14.08,47.84626,-54.09684
2021-05-11 19:39:01+00:00,242.0531,4.6,14.08,47.84626,-54.09684
2021-05-11 19:49:01+00:00,245.0748,4.5,14.08,47.84626,-54.09684
2021-05-11 19:59:01+00:00,250.1764,4.3,14.08,47.84626,-54.09684
2021-05-11 20:09:01+00:00,258.5681,4.37,14.08,47.84626,-54.09684
2021-05-11 20:19:01+00:00,264.4198,4.55,14.0,47.84626,-54.09684
2021-05-11 20:29:01+00:00,267.3481,4.6,14.0,47.84626,-54.09684
2021-05-11 20:39:01+00:00,277.8047,4.7,14.0,47.84626,-54.09684
2021-05-11 20:49:01+00:00,289.1564,4.7,14.0,47.84626,-54.09684
2021-05-11 20:59:01+00:00,288.9098,4.7,14.0,47.84626,-54.09684
2021-05-11 21:09:01+00:00,293.0513,4.7,14.0,47.84626,-54.09684
2021-05-11 21:19:01+00:00,303.0164,4.7,13.76,47.84626,-54.09684
2021-05-11 21:29:01+00:00,307.758,4.6,13.76,47.84626,-54.09684
2021-05-11 21:39:01+00:00,304.8364,4.5,13.76,47.84626,-54.09684
2021-05-11 21:49:01+00:00,313.8713,4.52,13.76,47.84626,-54.09684
2021-05-11 21:59:01+00:00,324.598,4.58,13.76,47.84626,-54.09684
2021-05-11 22:09:01+00:00,328.4796,4.59,13.76,47.84626,-54.09684
2021-05-11 22:19:01+00:00,329.963,4.53,13.53,47.84626,-54.09684
2021-05-11 22:29:01+00:00,340.8013,4.54,13.53,47.84626,-54.09684
2021-05-11 22:39:01+00:00,349.0646,4.57,13.53,47.84626,-54.09684
2021-05-11 22:49:01+00:00,349.0197,4.5,13.53,47.84626,-54.09684
2021-05-11 22:59:01+00:00,350.3245,4.5,13.53,47.84626,-54.09684
2021-05-11 23:09:01+00:00,355.95300000000015,4.5,13.53,47.84626,-54.09684
2021-05-11 23:19:01+00:00,356.7563,4.4,13.13,47.84626,-54.09684
2021-05-11 23:29:01+00:00,353.6146,4.4,13.13,47.84626,-54.09684
2021-05-11 23:39:01+00:00,359.1213,4.3,13.13,47.84626,-54.09684
2021-05-11 23:49:01+00:00,364.6329,4.2,13.13,47.84626,-54.09684
2021-05-11 23:59:01+00:00,357.3914,4.2,13.13,47.84626,-54.09684
